[Iaude] MPEC U93: 2016 UY40 [a=1.66,e=0.39,i=20.7,H=21.9]

mpec at si.edu mpec at si.edu
Sat Oct 29 00:13:45 EDT 2016


M.P.E.C. 2016-U93                                Issued 2016 Oct. 29, 04:10 UT
 
     The Minor Planet Electronic Circulars contain information on unusual
         minor planets and routine data on comets.  They are published
    on behalf of Division F of the International Astronomical Union by the
          Minor Planet Center, Smithsonian Astrophysical Observatory,
                          Cambridge, MA 02138, U.S.A.

             Prepared using the Tamkin Foundation Computer Network

                              MPC at CFA.HARVARD.EDU
            URL http://www.minorplanetcenter.net/    ISSN 1523-6714


                                   2016 UY40
 
Observations:
     K16U40Y* C2016 10 26.11459 22 00 25.79 -01 51 05.3          21.5 VqEU093G96
     K16U40Y  C2016 10 26.11890 22 00 25.15 -01 50 48.3          20.4 VqEU093G96
     K16U40Y  C2016 10 26.12318 22 00 24.37 -01 50 32.4          21.4 VqEU093G96
     K16U40Y  C2016 10 26.12747 22 00 23.64 -01 50 15.9          21.1 VqEU093G96
     K16U40Y HC2016 10 26.16188 22 00 18.02 -01 48 04.4          21.2 VoEU093691
     K16U40Y HC2016 10 26.16417 22 00 17.70 -01 47 55.7          21.3 VoEU093691
     K16U40Y HC2016 10 26.16648 22 00 17.23 -01 47 44.7          20.9 VoEU093691
     K16U40Y  C2016 10 26.20519 22 00 10.93 -01 45 19.2          21.0 VqEU093G96
     K16U40Y  C2016 10 26.20681 22 00 10.71 -01 45 13.2          20.5 VqEU093G96
     K16U40Y  C2016 10 26.20845 22 00 10.45 -01 45 06.6          21.4 VqEU093G96
     K16U40Y  C2016 10 26.21834 22 00 08.82 -01 44 27.9          21.7 RoEU093926
     K16U40Y  C2016 10 26.22530 22 00 07.70 -01 44 01.6          21.3 RoEU093926
     K16U40Y  C2016 10 26.23225 22 00 06.56 -01 43 35.1          21.4 RoEU093926
     K16U40Y  C2016 10 27.09599 21 57 58.21 -00 48 32.0          21.4 VqEU093I52
     K16U40Y  C2016 10 27.09846 21 57 57.76 -00 48 22.7          21.6 VqEU093I52
     K16U40Y  C2016 10 27.10092 21 57 57.25 -00 48 13.5          21.1 VqEU093I52
     K16U40Y  C2016 10 27.10338 21 57 56.92 -00 48 04.9          20.7 VqEU093I52
     K16U40Y  C2016 10 27.10853 21 57 56.14 -00 47 44.3          21.6 RoEU093926
     K16U40Y  C2016 10 27.11397 21 57 55.27 -00 47 23.4          21.2 RoEU093926
     K16U40Y  C2016 10 27.11940 21 57 54.38 -00 47 02.8          21.6 RoEU093926
     K16U40Y |C2016 10 28.06620 21 55 36.05 +00 13 48.8          21.5 VuEU093807
     K16U40Y |C2016 10 28.07102 21 55 35.31 +00 14 07.3          21.4 VuEU093807
     K16U40Y |C2016 10 28.07581 21 55 34.54 +00 14 25.3          21.5 VuEU093807
     K16U40Y  C2016 10 28.13031 21 55 27.35 +00 17 20.3                qEU093I52
     K16U40Y  C2016 10 28.13517 21 55 26.56 +00 17 39.2                qEU093I52
     K16U40Y  C2016 10 28.13928 21 55 25.96 +00 17 56.3          22.5 VqEU093I52
     K16U40Y  C2016 10 28.14345 21 55 25.21 +00 18 12.6                qEU093I52
     K16U40Y  C2016 10 29.09961 21 53 11.93 +01 19 04.0          20.9 VqEU093G96
     K16U40Y  C2016 10 29.10149 21 53 11.55 +01 19 11.9          21.2 VqEU093G96
     K16U40Y  C2016 10 29.10341 21 53 11.29 +01 19 19.7          21.0 VqEU093G96
     K16U40Y  C2016 10 29.10520 21 53 11.07 +01 19 25.7          20.6 VqEU093G96
 
Observer details:
691 Steward Observatory, Kitt Peak.  Observer R. A. Mastaler.  0.9-m f/3
    reflector + CCD.
807 Cerro Tololo.  Observers T. Linder, R. Holmes.  0.61-m f/6.5 astrograph
    + CCD.
926 Tenagra II Observatory.  Observers M. Schwartz, P. R. Holvorcem.  Measurer
    M. Schwartz.  0.81-m f/7 Ritchey-Chretien + CCD.
G96 Mt. Lemmon Survey.  Observers G. J. Leonard, D. C. Fuls.  Measurers
    E. J. Christensen, D. C. Fuls, A. R. Gibbs, A. D. Grauer, J. A. Johnson,
    R. A. Kowalski, S. M. Larson, G. J. Leonard, R. G. Matheny, R. L. Seaman,
    F. C. Shelly.  1.5-m reflector + 10K CCD.
I52 Steward Observatory, Mt. Lemmon Station.  Observers R. A. Kowalski,
    J. A. Johnson.  Measurers E. J. Christensen, D. C. Fuls, A. R. Gibbs,
    A. D. Grauer, J. A. Johnson, R. A. Kowalski, S. M. Larson, G. J. Leonard,
    R. G. Matheny, R. L. Seaman, F. C. Shelly.  1.0-m reflector + CCD.
 
Orbital elements:
2016 UY40                                                Earth MOID = 0.1508 AU
Epoch 2016 July 31.0 TT = JDT 2457600.5                 MPC
M 294.38261              (2000.0)            P               Q
n   0.46255880     Peri.   64.14484     +0.21272394     -0.97312477
a   1.6558643      Node    14.42312     +0.72075357     +0.09533504
e   0.3938656      Incl.   20.73490     +0.65974451     +0.20961730
P   2.13           H   21.9           G   0.15           U   8
Residuals in seconds of arc
161026 G96  0.1+  0.0     161026 926  0.2+  0.0     161028 807  0.1-  0.4-
161026 G96  1.1+  0.5+    161026 926  0.0   0.1-    161028 I52  0.4-  1.6-
161026 G96  0.1-  0.1+    161027 I52  1.3+  0.9+    161028 I52  1.1-  1.3-
161026 G96  0.4-  0.2+    161027 I52  0.4+  0.8+    161028 I52  0.6-  0.1+
161026 691  0.4-  0.1-    161027 I52  1.3-  0.6+    161028 I52 (2.3-  0.5+)
161026 691  0.4+  0.1-    161027 I52  0.4-  0.2-    161029 G96  1.1+  0.2-
161026 691 (0.9-  2.0+)   161027 926  0.1+  0.2+    161029 G96  0.4-  0.6+
161026 G96  0.4-  0.3-    161027 926  0.0   0.3+    161029 G96  0.0   1.0+
161026 G96  0.3+  0.5-    161027 926  0.4-  0.1+    161029 G96  0.7+  0.2+
161026 G96  0.4+  0.1-    161028 807  0.4+  0.1-
161026 926  0.1+  0.3+    161028 807  0.4+  0.1-

Ephemeris:
2016 UY40                a,e,i = 1.66, 0.39, 21                  q = 1.0037
Date    TT    R. A. (2000) Decl.     Delta      r     Elong.  Phase     V
2016 09 29    23 34 09.5 -25 05 01   0.3297  1.2981   150.1    22.6    21.1
...
2016 10 14    22 37 32.7 -14 09 51   0.2868  1.2160   134.6    35.7    21.1
...
2016 10 22    22 11 40.6 -06 11 18   0.2811  1.1747   123.7    44.8    21.2
...
2016 10 28    21 55 46.2 +00 09 17   0.2834  1.1454   115.7    51.4    21.4
2016 10 29    21 53 25.5 +01 12 57   0.2842  1.1407   114.5    52.4    21.4
2016 10 30    21 51 10.0 +02 16 29   0.2851  1.1361   113.2    53.4    21.4
...
2016 11 05    21 39 19.8 +08 32 08   0.2928  1.1093   106.2    59.1    21.6
...
2016 11 13    21 27 31.5 +16 29 04   0.3067  1.0771    98.2    65.4    21.8
...
2016 11 28    21 13 37.6 +29 53 52   0.3368  1.0307    87.9    73.1    22.2

A. U. Tomatic                (C) Copyright 2016 MPC           M.P.E.C. 2016-U93




More information about the Iaude mailing list